Change the Weather History Date:

Friday, March 9, 2012

  Actual Average Record
Temperature  
Mean Temperature 61 °F -  
Max Temperature 79 °F 75 °F 91 °F (2004)
Min Temperature 43 °F 51 °F 43 °F (2012)
Degree Days  
Heating Degree Days 4    
Growing Degree Days 11 (Base 50)    
Moisture  
Dew Point 26 °F    
Average Humidity 28    
Maximum Humidity 45    
Minimum Humidity 12    
Precipitation  
Precipitation 0.00 in - - ()
Sea Level Pressure  
Sea Level Pressure 30.18 in    
Wind  
Wind Speed 5 mph (WSW)    
Max Wind Speed 12 mph    
Max Gust Speed -    
Visibility 10 miles    
Events      
Averages and records for this station are not official NWS values.
T = Trace of Precipitation, MM = Missing Value Source: NWS Daily Summary

Daily Weather History Graph

Daily Weather History Graph

Search for Another Location

Airport or City:

Trip Planner

Search our weather history database for the weather conditions in past years. The results will help you decide how hot, cold, wet, or windy it might be!

Date:

Astronomy

Mar. 09, 2012 Rise Set
Actual Time 5:59 AM PST 5:46 PM PST
Civil Twilight 5:35 AM PST 6:11 PM PST
Nautical Twilight 5:06 AM PST 6:39 PM PST
Astronomical Twilight 4:38 AM PST 7:08 PM PST
Moon 7:40 PM PST (3/9) 6:29 AM PST (3/9)
Length of Visible Light 12h 35m
Length of Day
11h 46m
Full, 97% of the Moon is Illuminated
Mar 9
Full
Mar 14
Last Quarter
Mar 22
New
Mar 30
First Quarter
Apr 6
Full

Hourly Weather History & Observations

Time (PST) Temp. Windchill Dew Point Humidity Pressure Visibility Wind Dir Wind Speed Gust Speed Precip Events Conditions
12:56 AM 51.1 °F - 18.0 °F 27% 30.29 in 10.0 mi West 5.8 mph - N/A   Clear
1:56 AM 46.9 °F - 23.0 °F 39% 30.28 in 10.0 mi West 6.9 mph - N/A   Clear
2:56 AM 46.0 °F 43.1 °F 21.9 °F 39% 30.26 in 10.0 mi West 5.8 mph - N/A   Clear
3:56 AM 46.0 °F 42.5 °F 23.0 °F 40% 30.26 in 10.0 mi WSW 6.9 mph - N/A   Clear
4:56 AM 44.1 °F 40.1 °F 23.0 °F 43% 30.27 in 10.0 mi WSW 6.9 mph - N/A   Clear
5:56 AM 43.0 °F 39.5 °F 23.0 °F 45% 30.28 in 10.0 mi WSW 5.8 mph - N/A   Clear
6:56 AM 48.0 °F - 27.0 °F 44% 30.30 in 10.0 mi SW 4.6 mph - N/A   Clear
7:55 AM - - - N/A% - - North - - N/A   Unknown
7:56 AM 55.9 °F - 30.9 °F 39% 30.31 in 10.0 mi West 3.5 mph - N/A   Clear
8:56 AM 66.0 °F - 32.0 °F 28% 30.30 in 10.0 mi Calm Calm - N/A   Clear
9:56 AM 71.1 °F - 26.1 °F 19% 30.30 in 10.0 mi Calm Calm - N/A   Clear
10:56 AM 75.0 °F - 25.0 °F 16% 30.27 in 10.0 mi Calm Calm - N/A   Clear
11:56 AM 77.0 °F - 23.0 °F 13% 30.24 in 10.0 mi Variable 5.8 mph - N/A   Clear
12:56 PM 78.1 °F - 21.0 °F 12% 30.19 in 10.0 mi Calm Calm - N/A   Clear
1:56 PM 79.0 °F - 21.0 °F 12% 30.15 in 10.0 mi Calm Calm - N/A   Clear
2:56 PM 79.0 °F - 26.1 °F 14% 30.12 in 10.0 mi Calm Calm - N/A   Clear
3:56 PM 78.1 °F - 30.0 °F 17% 30.09 in 10.0 mi SW 3.5 mph - N/A   Clear
4:56 PM 73.9 °F - 36.0 °F 25% 30.08 in 10.0 mi SW 8.1 mph - N/A   Clear
5:56 PM 71.1 °F - 28.9 °F 21% 30.07 in 10.0 mi SW 6.9 mph - N/A   Clear
6:56 PM 68.0 °F - 28.0 °F 22% 30.06 in 10.0 mi SSW 9.2 mph - N/A   Clear
7:56 PM 63.0 °F - 28.9 °F 28% 30.05 in 10.0 mi SSW 8.1 mph - N/A   Clear
8:56 PM 59.0 °F - 30.0 °F 33% 30.05 in 10.0 mi SW 8.1 mph - N/A   Clear
9:56 PM 55.9 °F - 28.9 °F 36% 30.05 in 10.0 mi WSW 8.1 mph - N/A   Clear
10:56 PM 54.0 °F - 28.9 °F 38% 30.04 in 10.0 mi WSW 11.5 mph - N/A   Clear
11:56 PM 55.9 °F - 26.1 °F 32% 30.03 in 10.0 mi WSW 10.4 mph - N/A   Clear